SP5AP-3 Weather Reports


Display with metric or nautical units.
time (UTC)temp
F
wind
direction
speed
MPH
gust
MPH
rain 1hr
in
rain 24hr
in
rain mn
in
humidity
%
barometer
mb
20260504060223 66 215 1.0 2.0 0.00 0.00 0.00 3 1012.4
20260504050719 62 0 0.0 0.0 0.00 0.00 0.00 4 1012.5
20260504050219 62 201 0.0 2.0 0.00 0.00 0.00 4 1012.5
20260504045719 61 0 0.0 0.0 0.00 0.00 0.00 4 1012.5
20260504045218 61 0 0.0 0.0 0.00 0.00 0.00 4 1012.4
20260504044718 61 206 0.0 1.0 0.00 0.00 0.00 4 1012.3
20260504044218 61 43 0.0 2.0 0.00 0.00 0.00 4 1012.3
20260504043717 61 0 0.0 0.0 0.00 0.00 0.00 4 1012.3
20260504043217 61 0 0.0 0.0 0.00 0.00 0.00 4 1012.2
20260504042717 61 0 0.0 0.0 0.00 0.00 0.00 4 1012.1
20260504042216 60 358 0.0 1.0 0.00 0.00 0.00 4 1012.2
20260504041716 60 0 0.0 0.0 0.00 0.00 0.00 4 1012.2
20260504041216 60 0 0.0 0.0 0.00 0.00 0.00 4 1012.4
20260504040715 59 0 0.0 0.0 0.00 0.00 0.00 4 1012.2
20260504040215 59 0 0.0 0.0 0.00 0.00 0.00 4 1012.3
20260504035715 58 0 0.0 0.0 0.00 0.00 0.00 4 1012.2
20260504035214 58 0 0.0 0.0 0.00 0.00 0.00 4 1012.3
20260504034714 58 0 0.0 0.0 0.00 0.00 0.00 4 1012.6
20260504034214 58 0 0.0 0.0 0.00 0.00 0.00 4 1012.3
20260504033713 58 0 0.0 0.0 0.00 0.00 0.00 4 1012.4
20260504033213 58 0 0.0 0.0 0.00 0.00 0.00 4 1012.4
20260504032713 58 0 0.0 0.0 0.00 0.00 0.00 4 1012.3
20260504032212 57 0 0.0 0.0 0.00 0.00 0.00 4 1012.3
20260504031712 57 0 0.0 0.0 0.00 0.00 0.00 4 1012.3
20260504031212 57 0 0.0 0.0 0.00 0.00 0.00 4 1012.3
20260504030711 57 0 0.0 0.0 0.00 0.00 0.00 4 1012.4
20260504030211 57 0 0.0 0.0 0.00 0.00 0.00 4 1012.4
20260504025711 57 0 0.0 0.0 0.00 0.00 0.00 5 1012.4
20260504025210 57 0 0.0 0.0 0.00 0.00 0.00 4 1012.3
20260504024710 57 0 0.0 0.0 0.00 0.00 0.00 4 1012.6
20260504024210 57 0 0.0 0.0 0.00 0.00 0.00 5 1012.5
20260504023709 57 0 0.0 0.0 0.00 0.00 0.00 5 1012.4
20260504023209 57 0 0.0 0.0 0.00 0.00 0.00 5 1012.2
20260504022709 57 0 0.0 0.0 0.00 0.00 0.00 5 1012.4
20260504022208 57 0 0.0 0.0 0.00 0.00 0.00 5 1012.6
20260504021708 57 0 0.0 0.0 0.00 0.00 0.00 5 1012.5
20260504021208 57 0 0.0 0.0 0.00 0.00 0.00 5 1012.7
20260504020707 57 0 0.0 0.0 0.00 0.00 0.00 5 1012.5
20260504020207 57 0 0.0 0.0 0.00 0.00 0.00 5 1012.4
20260504015707 58 0 0.0 0.0 0.00 0.00 0.00 5 1012.6
20260504015206 58 0 0.0 0.0 0.00 0.00 0.00 5 1012.5
20260504014706 58 0 0.0 0.0 0.00 0.00 0.00 5 1012.7
20260504014206 58 0 0.0 0.0 0.00 0.00 0.00 5 1012.4
20260504013705 59 0 0.0 0.0 0.00 0.00 0.00 5 1012.4
20260504013205 59 0 0.0 0.0 0.00 0.00 0.00 5 1012.7
20260504012705 59 0 0.0 0.0 0.00 0.00 0.00 5 1012.6
20260504012204 59 0 0.0 0.0 0.00 0.00 0.00 5 1012.6
20260504011704 59 0 0.0 0.0 0.00 0.00 0.00 5 1012.5
20260504011204 59 0 0.0 0.0 0.00 0.00 0.00 5 1012.5
20260504010703 59 0 0.0 0.0 0.00 0.00 0.00 5 1012.6
20260504010203 59 0 0.0 0.0 0.00 0.00 0.00 5 1012.7
20260504005703 60 0 0.0 0.0 0.00 0.00 0.00 4 1012.6
20260504005202 60 0 0.0 0.0 0.00 0.00 0.00 4 1012.7
20260504004702 60 0 0.0 0.0 0.00 0.00 0.00 4 1012.4
20260504004202 61 0 0.0 0.0 0.00 0.00 0.00 4 1012.3
20260504003701 60 0 0.0 0.0 0.00 0.00 0.00 4 1012.6
20260504003201 61 0 0.0 0.0 0.00 0.00 0.00 4 1012.5
20260504002701 61 0 0.0 0.0 0.00 0.00 0.00 4 1012.6
20260504002200 61 0 0.0 0.0 0.00 0.00 0.00 4 1012.4
20260504001700 61 0 0.0 0.0 0.00 0.00 0.00 4 1012.3
20260504001159 61 0 0.0 0.0 0.00 0.00 0.00 4 1012.4
20260504000659 61 0 0.0 0.0 0.00 0.00 0.00 4 1012.5
20260504000159 61 0 0.0 0.0 0.00 0.00 0.00 4 1012.3
20260503235658 61 0 0.0 0.0 0.00 0.00 0.00 4 1012.4
20260503235158 61 0 0.0 0.0 0.00 0.00 0.00 4 1012.4
20260503234658 60 0 0.0 0.0 0.00 0.00 0.00 4 1012.4
20260503234157 60 0 0.0 0.0 0.00 0.00 0.00 4 1012.4
20260503233657 60 0 0.0 0.0 0.00 0.00 0.00 4 1012.6
20260503233157 60 0 0.0 0.0 0.00 0.00 0.00 4 1012.7
20260503232656 60 0 0.0 0.0 0.00 0.00 0.00 4 1012.5
20260503232156 61 0 0.0 0.0 0.00 0.00 0.00 4 1012.7
20260503231656 60 0 0.0 0.0 0.00 0.00 0.00 4 1012.6
20260503231155 61 0 0.0 0.0 0.00 0.00 0.00 4 1012.6
20260503230655 61 0 0.0 0.0 0.00 0.00 0.00 4 1012.6
20260503230155 61 0 0.0 0.0 0.00 0.00 0.00 4 1012.6
20260503225654 61 0 0.0 0.0 0.00 0.00 0.00 4 1012.6
20260503225154 61 0 0.0 0.0 0.00 0.00 0.00 4 1012.7
20260503224654 62 0 0.0 0.0 0.00 0.00 0.00 4 1012.7
20260503224153 62 0 0.0 0.0 0.00 0.00 0.00 4 1012.8
20260503223653 62 0 0.0 0.0 0.00 0.00 0.00 4 1012.8
20260503223153 62 0 0.0 0.0 0.00 0.00 0.00 4 1012.6
20260503222652 62 0 0.0 0.0 0.00 0.00 0.00 4 1012.8
20260503222152 63 0 0.0 0.0 0.00 0.00 0.00 4 1012.9
20260503221652 63 0 0.0 0.0 0.00 0.00 0.00 4 1012.7
20260503221151 63 0 0.0 0.0 0.00 0.00 0.00 4 1012.8
20260503220651 64 0 0.0 0.0 0.00 0.00 0.00 4 1012.6
20260503220151 64 0 0.0 0.0 0.00 0.00 0.00 4 1012.7
20260503215650 64 0 0.0 0.0 0.00 0.00 0.00 4 1012.8
20260503215150 64 0 0.0 0.0 0.00 0.00 0.00 4 1012.6
20260503214650 65 0 0.0 0.0 0.00 0.00 0.00 4 1012.7
20260503214149 66 0 0.0 0.0 0.00 0.00 0.00 3 1012.7
20260503213649 66 0 0.0 0.0 0.00 0.00 0.00 3 1012.7
20260503213149 67 0 0.0 0.0 0.00 0.00 0.00 3 1012.6
20260503212648 67 0 0.0 0.0 0.00 0.00 0.00 3 1012.7
20260503212148 67 0 0.0 0.0 0.00 0.00 0.00 3 1012.5
20260503211648 67 0 0.0 0.0 0.00 0.00 0.00 3 1012.6
20260503211147 68 0 0.0 0.0 0.00 0.00 0.00 3 1012.5
20260503210647 67 0 0.0 0.0 0.00 0.00 0.00 3 1012.8
20260503210147 67 0 0.0 0.0 0.00 0.00 0.00 3 1012.6
20260503205646 68 0 0.0 0.0 0.00 0.00 0.00 3 1012.5
20260503205146 68 0 0.0 0.0 0.00 0.00 0.00 3 1012.4
20260503204646 67 0 0.0 0.0 0.00 0.00 0.00 3 1012.6
20260503204145 67 0 0.0 0.0 0.00 0.00 0.00 3 1012.7
20260503203645 67 0 0.0 0.0 0.00 0.00 0.00 3 1012.5
20260503203145 66 0 0.0 0.0 0.00 0.00 0.00 3 1012.8
20260503202644 66 0 0.0 0.0 0.00 0.00 0.00 3 1012.6
20260503202144 66 0 0.0 0.0 0.00 0.00 0.00 3 1012.7
20260503201644 66 0 0.0 0.0 0.00 0.00 0.00 3 1012.4
20260503201143 66 0 0.0 0.0 0.00 0.00 0.00 3 1012.5
20260503200643 66 0 0.0 0.0 0.00 0.00 0.00 3 1012.6
20260503200143 66 0 0.0 0.0 0.00 0.00 0.00 3 1012.5
20260503195642 66 0 0.0 0.0 0.00 0.00 0.00 3 1012.6
20260503195142 66 0 0.0 0.0 0.00 0.00 0.00 3 1012.5
20260503194642 66 0 0.0 0.0 0.00 0.00 0.00 3 1012.6
20260503194141 67 0 0.0 0.0 0.00 0.00 0.00 3 1012.5
20260503193641 67 0 0.0 0.0 0.00 0.00 0.00 3 1012.5
20260503193141 67 0 0.0 0.0 0.00 0.00 0.00 3 1012.5
20260503192640 67 0 0.0 0.0 0.00 0.00 0.00 3 1012.6
20260503192140 67 0 0.0 0.0 0.00 0.00 0.00 3 1012.5
20260503191640 67 0 0.0 0.0 0.00 0.00 0.00 3 1012.5
20260503191139 68 0 0.0 0.0 0.00 0.00 0.00 3 1012.8
20260503190639 68 0 0.0 0.0 0.00 0.00 0.00 3 1012.6
20260503190139 69 0 0.0 0.0 0.00 0.00 0.00 3 1012.6
20260503185638 69 0 0.0 0.0 0.00 0.00 0.00 3 1012.3
20260503185138 70 0 0.0 0.0 0.00 0.00 0.00 3 1012.6
20260503184638 70 0 0.0 0.0 0.00 0.00 0.00 3 1012.6
20260503184137 70 0 0.0 0.0 0.00 0.00 0.00 3 1012.5
20260503183637 70 0 0.0 0.0 0.00 0.00 0.00 3 1012.4
20260503183137 71 0 0.0 0.0 0.00 0.00 0.00 3 1012.4
20260503182636 71 0 0.0 0.0 0.00 0.00 0.00 3 1012.5
20260503182136 72 0 0.0 0.0 0.00 0.00 0.00 3 1012.2
20260503181636 72 0 0.0 0.0 0.00 0.00 0.00 3 1012.4
20260503181135 72 0 0.0 0.0 0.00 0.00 0.00 3 1012.5
20260503180635 72 0 0.0 0.0 0.00 0.00 0.00 3 1012.3
20260503180135 73 0 0.0 0.0 0.00 0.00 0.00 2 1012.2
20260503175634 73 0 0.0 0.0 0.00 0.00 0.00 2 1012.2
20260503175134 73 0 0.0 0.0 0.00 0.00 0.00 2 1012.2
20260503174634 74 0 0.0 0.0 0.00 0.00 0.00 2 1011.9
20260503174133 74 0 0.0 0.0 0.00 0.00 0.00 2 1012.2
20260503173633 75 0 0.0 0.0 0.00 0.00 0.00 2 1012.0
20260503173133 75 0 0.0 0.0 0.00 0.00 0.00 2 1012.0
20260503172632 75 277 0.0 1.0 0.00 0.00 0.00 2 1012.0
20260503172132 75 302 0.0 1.0 0.00 0.00 0.00 2 1012.1
20260503171632 76 0 0.0 0.0 0.00 0.00 0.00 2 1011.9
20260503171131 76 0 0.0 0.0 0.00 0.00 0.00 2 1011.9
20260503170631 76 0 0.0 0.0 0.00 0.00 0.00 2 1012.1
20260503170131 77 0 0.0 0.0 0.00 0.00 0.00 2 1012.0
20260503160127 78 0 0.0 0.0 0.00 0.00 0.00 2 1011.9
20260503150623 79 356 0.0 1.0 0.00 0.00 0.00 2 1012.4
20260503150123 79 217 2.0 2.0 0.00 0.00 0.00 2 1012.6
20260503140119 79 0 0.0 0.0 0.00 0.00 0.00 2 1013.2
20260503131115 80 14 0.0 1.0 0.00 0.00 0.00 2 1013.7
20260503130615 79 337 2.0 3.0 0.00 0.00 0.00 2 1013.3
20260503130115 80 2 0.0 1.0 0.00 0.00 0.00 2 1013.8
20260503120111 80 232 2.0 4.0 0.00 0.00 0.00 2 1014.2
20260503110607 79 38 1.0 2.0 0.00 0.00 0.00 2 1014.8
20260503110107 79 0 0.0 2.0 0.00 0.00 0.00 2 1014.9
20260503081556 76 17 1.0 2.0 0.00 0.00 0.00 3 1016.5
20260503081056 76 23 0.0 1.0 0.00 0.00 0.00 3 1016.6
20260503080555 75 2 0.0 1.0 0.00 0.00 0.00 3 1016.7
20260503072553 74 32 0.0 1.0 0.00 0.00 0.00 3 1017.0
20260503072052 73 231 1.0 2.0 0.00 0.00 0.00 3 1016.8
20260503071552 73 0 0.0 0.0 0.00 0.00 0.00 3 1016.8
20260503071052 72 4 0.0 2.0 0.00 0.00 0.00 3 1016.8
20260503070551 72 306 1.0 1.0 0.00 0.00 0.00 3 1016.9